Location: Saint Louis
(38.6272°N, 90.1978°W)
Time: 03:10:18
(UTC-05:00)

ISS - Pass Details

Date: 20 May 2013
Orbit: 402 x 403 km, 51.6° (Epoch: 30 June)

Event Time Altitude Azimuth Distance (km) Brightness Sun altitude
Exits shadow 03:19:38 56° 37° (NE) 511 -2.6 -22.5°
Drops below altitude 10° 03:22:25 10° 49° (NE) 1,508 0.6 -22.2°
Enters shadow 04:17:05 -71° 234° (SW) 12,546 4.2 -15.0°
